SCP
2 1 1 0 0 0 0 0 0 0 0 0 0 0 0 0 0 0 0 0 0 0 0 0 0 0 0 0 0 0 0 0 0 0 0 0 0 0 0 0 0 0 0
2 2 1 1 0 0 0 1 1 0 0 0 0 0 0 0 0 0 0 0 0 0 0 0 0 0 0 0 0 0 0 0 0 0 0 0 0 0 0 0 0 0 0
2 1 1 0 0 0 1 1 1 0 0 0 0 0 0 0 0 0 0 0 0 0 0 0 0 0 0 0 0 0 0 0 0 0 0 0 0 0 0 0 0 0 0
2 1 1 0 0 1 1 1 1 0 0 0 0 0 0 0 0 0 0 0 0 0 0 0 0 0 0 0 0 0 0 0 0 0 0 0 0 0 0 0 0 0 0
2 1 1 1 1 1 1 1 1 1 0 0 0 0 0 0 0 0 0 0 0 0 0 0 0 0 0 0 0 0 0 0 0 0 0 0 0 0 0 0 0 0 0
2 2 2 1 1 1 1 1 1 1 0 0 0 0 0 0 0 0 0 0 0 0 0 0 0 0 0 0 0 0 0 0 0 0 0 0 0 0 0 0 0 0 0
2 2 2 2 1 1 1 1 1 0 0 0 0 0 0 0 0 0 0 0 0 0 0 0 0 0 0 0 0 0 0 0 0 0 0 0 0 0 0 0 0 0 0
1 2 2 2 1 1 1 1 1 0 0 0 0 0 0 0 0 0 0 0 0 0 0 0 0 0 0 0 0 0 0 0 0 0 0 0 0 0 0 0 0 0 0
1 2 2 2 2 1 1 1 1 0 0 0 0 0 0 0 0 0 0 0 0 0 0 0 0 0 0 0 0 0 0 0 0 0 0 0 0 0 0 0 0 0 0
1 2 2 2 2 1 1 1 1 0 0 0 0 0 0 0 0 0 0 0 0 0 0 0 0 0 0 0 0 0 0 0 0 0 0 0 0 0 0 0 0 0 0
2 2 2 2 1 1 1 0 0 0 0 0 0 0 0 0 0 0 0 0 0 0 0 0 0 0 0 0 0 0 0 0 0 0 0 0 0 0 0 0 0 0 0
2 2 2 1 1 1 0 0 0 0 0 0 0 0 0 0 0 0 0 0 0 0 0 0 0 0 0 0 0 0 0 0 0 0 0 0 0 0 0 0 0 0 0
2 2 1 1 0 0 0 0 0 0 0 0 0 0 0 0 0 0 0 0 0 0 0 0 0 0 0 0 0 0 0 0 0 0 0 0 0 0 0 0 0 0 0
1 1 0 0 0 0 0 0 0 0 0 0 0 0 0 0 0 0 0 0 0 0 0 0 0 0 0 0 0 0 0 0 0 0 0 0 0 0 0 0 0 0 0
1 0 0 0 0 0 0 0 0 0 0 0 0 0 0 0 0 0 0 0 0 0 0 0 0 0 0 0 0 0 0 0 0 0 0 0 0 0 0 0 0 0 0
0 0 0 0 0 0 0 0 0 0 0 0 0 0 0 0 0 0 0 0 0 0 0 0 0 0 0 0 0 0 0 0 0 0 0 0 0 0 0 0 0 0 0
0 0 0 0 0 0 0 0 0 0 0 0 0 0 0 0 0 0 0 0 0 0 0 0 0 0 0 0 0 0 0 0 0 0 0 0 0 0 0 0 0 0 0
0 0 0 0 0 0 0 0 0 0 0 0 0 0 0 0 0 0 0 0 0 0 0 0 0 0 0 0 0 0 0 0 0 0 0 0 0 0 0 0 0 0 0
0 0 0 0 0 0 0 0 0 0 0 0 0 0 0 0 0 0 0 0 0 0 0 0 0 0 0 0 0 0 0 0 0 0 0 0 0 0 0 0 0 0 0
0 0 0 0 0 0 0 0 0 0 0 0 0 0 0 0 0 0 0 0 0 0 0 0 0 0 0 0 0 0 0 0 0 0 0 0 0 0 0 0 0 0 0
0 0 0 0 0 0 0 0 0 0 0 0 0 0 0 0 0 0 0 0 0 0 0 0 0 0 0 0 0 0 0 0 0 0 0 0 0 0 0 0 0 0 0
0 0 0 0 0 0 0 0 0 0 0 0 0 0 0 0 0 0 0 0 0 0 0 0 0 0 0 0 0 0 0 0 0 0 0 0 0 0 0 0 0 0 0
0 0 0 0 0 0 0 0 0 0 0 0 0 0 0 0 0 0 0 0 0 0 0 0 0 0 0 0 0 0 0 0 0 0 0 0 0 0 0 0 0 0 0
0 0 0 0 0 0 0 0 0 0 0 0 0 0 0 0 0 0 0 0 0 0 0 0 0 0 0 0 0 0 0 0 0 0 0 0 0 0 0 0 0 0 0
0 0 0 0 0 0 0 0 0 0 0 0 0 0 0 0 0 0 0 0 0 0 0 0 0 0 0 0 0 0 0 0 0 0 0 0 0 0 0 0 0 0 0
0 0 0 0 0 0 0 0 0 0 0 0 0 0 0 0 0 0 0 0 0 0 0 0 0 0 0 0 0 0 0 0 0 0 0 0 0 0 0 0 0 0 0
Wind_Speed
7 6 6 6 6 5 5 6 5 5 5 6 6 6 6 6 5 5 4 4 4 3 3 3 2 2 2 1 1 2 2 2 3 2 2 2 2 3 3 2 2 2 3
6 6 6 5 5 5 5 5 5 5 5 6 6 5 5 5 5 5 5 4 4 3 3 3 2 2 2 2 1 2 2 2 3 2 1 1 2 2 2 2 2 2 2
6 6 5 5 5 5 5 4 5 5 5 5 5 5 4 4 5 4 4 4 4 3 2 2 1 2 1 1 1 1 1 1 2 2 1 1 1 2 2 2 3 3 3
5 6 5 5 5 5 4 5 5 5 6 6 5 5 4 4 4 4 4 4 3 3 3 2 1 2 1 1 1 1 1 1 1 1 1 1 1 2 2 2 3 3 3
5 5 5 5 5 5 5 5 5 6 6 6 6 5 5 4 3 4 4 4 4 4 4 4 4 5 4 2 1 1 1 1 1 0 0 1 2 2 3 2 3 3 2
5 5 4 5 6 6 5 6 6 6 6 7 6 6 6 4 5 6 6 5 5 5 5 5 6 7 9 10 10 9 6 3 1 1 1 2 2 2 2 3 2 3 2
5 4 5 6 6 6 6 6 6 6 6 7 7 7 7 6 8 8 9 7 7 6 5 5 5 6 6 6 10 13 14 14 9 3 3 3 3 3 3 3 2 2 2
6 6 6 6 7 7 7 7 7 7 7 6 7 7 7 7 10 11 12 9 8 7 7 6 6 6 6 6 8 10 10 10 9 7 6 5 5 4 3 2 2 2 2
6 6 6 7 8 8 8 8 8 8 8 8 7 8 8 8 10 10 9 8 8 9 8 8 7 7 9 9 9 9 9 7 10 13 12 11 12 12 8 4 4 3 3
7 7 7 7 8 9 9 9 8 9 9 9 9 9 9 8 10 11 10 7 8 7 7 8 12 11 11 11 9 8 8 6 6 7 9 10 9 11 13 7 5 4 3
8 9 9 9 9 10 10 9 10 10 10 9 10 9 9 9 10 12 10 7 7 8 7 7 7 13 14 13 10 8 8 6 6 7 6 7 7 7 7 7 5 3 3
10 11 10 10 9 9 11 10 9 10 10 9 9 9 8 8 10 11 13 11 9 9 7 6 7 13 14 13 10 11 11 8 6 6 6 7 6 6 6 6 7 5 3
12 11 11 11 10 9 10 10 8 8 8 7 7 7 6 6 8 13 13 14 13 9 8 12 11 12 12 11 14 13 9 7 6 6 6 5 5 5 5 5 6 6 6
12 11 10 11 11 9 8 7 7 7 7 7 7 7 6 6 5 5 6 8 11 10 8 11 13 13 10 10 9 8 7 6 6 5 4 4 4 5 5 5 5 6 5
12 11 11 11 11 10 10 8 8 6 5 8 6 6 7 6 5 6 6 6 5 6 7 6 6 6 7 6 6 6 6 6 5 4 4 5 5 5 5 5 5 5 5
12 10 9 9 9 9 10 11 16 13 14 13 10 8 7 9 11 13 13 12 11 9 8 6 6 5 5 5 5 5 5 5 5 4 4 5 5 5 6 5 5 5 6
11 10 8 8 9 8 8 10 10 11 15 14 13 12 12 12 13 13 14 13 11 10 7 6 5 4 4 4 3 3 4 4 4 4 5 5 5 5 5 6 6 6 6
11 11 10 8 7 8 8 8 8 8 8 6 9 11 12 12 12 11 11 9 7 6 5 4 4 3 3 3 3 3 3 4 4 4 5 5 5 5 6 6 6 7 7
10 8 8 8 7 8 8 8 7 8 7 6 5 6 8 10 11 10 7 5 5 4 3 3 2 2 2 2 2 2 3 4 5 5 5 5 5 5 5 6 6 8 7
8 13 11 8 8 7 7 7 7 7 6 5 5 4 3 4 4 4 4 3 3 3 2 2 1 1 1 1 2 2 3 4 5 5 5 5 5 5 6 7 7 7 7
7 9 12 8 7 6 6 6 6 6 6 5 4 3 4 4 4 3 3 2 2 1 1 1 1 1 1 1 2 3 4 4 4 5 5 5 5 5 5 6 7 7 7
7 6 6 6 6 6 6 5 5 5 6 6 4 4 6 4 3 3 2 1 1 1 1 1 1 1 1 1 2 2 3 4 5 5 5 5 6 6 6 6 7 7 7
7 7 6 6 6 7 6 5 5 5 5 5 4 4 3 3 2 2 1 1 1 1 1 1 1 0 1 1 1 2 3 4 4 5 6 6 6 6 6 7 9 9 9
7 7 7 6 6 6 5 5 5 5 5 5 4 3 3 2 2 2 1 1 1 1 1 0 0 1 2 2 2 2 3 4 5 4 6 6 7 6 7 7 8 9 9
7 6 6 6 6 6 5 5 5 5 5 4 4 3 3 2 2 1 1 1 1 1 0 0 1 2 3 3 3 3 4 5 5 5 5 5 7 7 8 8 8 9 9
6 6 6 5 5 5 5 5 5 5 4 4 3 3 3 2 2 2 1 1 1 1 1 1 2 3 3 3 4 5 5 5 5 6 5 5 6 6 8 7 9 8 9
Wind_Direction
182 182 178 180 179 174 180 186 183 178 173 175 176 172 171 170 168 166 169 168 172 178 176 175 191 181 180 184 176 177 186 183 215 260 261 291 306 326 336 320 288 273 273
175 172 175 171 169 174 185 184 174 172 170 170 165 165 171 168 166 170 174 171 172 179 181 176 197 184 185 184 180 192 198 201 208 244 280 299 305 329 328 332 331 315 291
162 165 167 170 173 179 181 173 164 162 156 151 149 151 156 155 157 164 162 160 163 166 162 168 181 159 174 169 179 195 210 205 202 217 266 306 316 345 341 343 350 345 334
158 160 171 181 178 172 160 151 150 148 143 140 137 137 135 136 144 147 148 146 141 134 128 126 119 137 170 169 166 196 176 160 170 204 274 329 330 345 0 353 349 354 354
153 161 173 170 160 148 141 136 131 132 136 131 122 113 109 111 121 134 135 131 124 112 94 85 74 74 73 82 86 83 116 121 124 109 24 23 11 5 359 347 338 335 346
148 160 155 146 140 135 132 128 125 123 121 116 114 109 97 91 94 111 118 113 108 102 93 81 72 61 64 68 69 64 60 60 58 64 48 37 12 357 351 351 345 349 339
136 134 127 127 126 126 124 119 117 113 105 100 101 100 94 84 92 100 105 101 91 85 82 78 72 62 63 74 72 67 58 53 54 68 59 35 14 357 350 352 352 341 321
127 119 114 117 116 113 112 108 102 97 96 93 93 96 92 81 87 94 96 90 83 74 71 73 77 66 65 82 83 73 64 53 51 58 63 47 35 15 5 353 331 324 306
124 118 118 117 116 113 110 106 101 97 91 86 82 83 85 75 76 89 97 93 85 73 64 62 70 71 66 80 85 81 70 56 57 60 59 52 45 39 32 28 21 14 352
120 117 114 113 112 109 108 103 97 95 91 86 77 70 74 74 71 80 91 96 91 83 71 62 61 70 66 70 78 80 74 55 49 50 45 38 37 36 37 36 21 13 353
107 102 99 99 103 106 103 100 101 98 93 87 81 68 62 62 64 71 81 93 100 93 81 69 63 69 70 68 71 72 74 71 62 58 50 40 33 29 25 22 19 16 2
104 101 99 99 101 103 103 99 98 101 98 92 85 73 57 52 57 67 73 82 93 94 88 81 75 74 72 68 68 66 63 62 58 53 45 33 24 17 8 3 3 2 350
103 101 100 96 95 99 103 104 99 94 95 93 90 84 71 60 58 65 74 80 84 87 89 90 82 75 72 67 62 60 56 55 52 48 38 22 7 356 355 354 357 354 345
104 101 100 98 93 86 84 90 97 100 103 101 98 95 87 74 68 69 75 81 82 86 86 80 73 67 66 63 56 51 50 50 50 43 26 7 359 359 2 357 349 348 343
103 102 100 98 98 88 77 65 75 65 99 112 108 106 104 91 72 90 98 91 94 99 95 78 69 64 61 56 52 47 43 40 37 27 17 8 2 358 353 351 345 342 341
108 104 103 103 100 99 96 81 60 72 76 82 94 101 87 99 101 92 89 90 91 95 85 78 73 68 64 57 51 43 36 29 19 12 10 3 355 349 344 343 343 339 334
109 109 107 106 107 106 106 106 99 73 65 68 79 92 102 106 100 97 93 84 78 82 84 83 78 70 63 56 47 38 25 11 4 6 3 355 348 344 340 339 339 335 330
102 105 107 106 107 107 106 106 108 110 99 73 63 81 95 97 95 96 97 87 69 64 80 86 80 71 62 53 40 25 11 5 3 360 356 352 348 340 337 336 334 332 326
106 107 106 104 104 104 105 104 103 103 105 103 94 76 78 84 78 72 74 85 92 82 78 78 76 68 53 39 25 13 5 359 356 349 348 347 343 336 332 330 327 325 322
104 112 110 110 109 108 108 110 111 113 113 110 106 104 95 87 82 65 60 76 87 88 84 81 69 58 42 26 14 5 359 355 351 346 340 337 335 330 327 326 325 324 322
109 113 113 111 113 116 116 117 119 120 118 112 104 105 117 109 105 96 88 84 92 101 101 94 83 52 29 14 5 357 352 345 342 337 333 331 330 326 322 319 319 318 318
113 114 116 118 117 115 117 119 120 121 123 119 109 98 99 100 106 104 99 90 84 83 101 116 106 57 17 7 354 344 338 335 335 333 328 325 323 322 321 320 321 322 321
119 119 115 113 116 120 118 121 124 124 123 121 121 118 113 112 114 112 105 91 86 88 98 119 122 70 20 4 346 330 321 322 321 318 316 317 319 321 320 319 319 321 321
123 126 127 125 124 127 129 128 128 129 130 131 131 133 137 137 136 134 133 124 119 111 109 118 189 322 333 338 329 321 315 313 313 308 309 307 311 314 315 316 315 317 318
122 127 131 132 133 135 134 135 135 135 136 140 144 146 152 153 156 165 175 173 164 162 192 273 300 307 311 315 317 319 318 313 313 316 310 305 309 312 316 315 316 318 321
121 125 127 130 133 137 140 141 144 146 147 151 155 164 170 175 184 195 205 209 212 220 242 264 282 289 293 298 305 312 312 314 317 316 311 307 311 315 322 317 320 321 323